Meteo pe oră la Czyzkowo

Astăzi, 14 Aprilie, Miercuri

Timp Temperatura Precipitaţii Vânt Presiune Umiditate
00:00 +2°C° 0 mm 2 m/s 756 mmHg 76%
01:00 +2°C° 0 mm 2 m/s 755 mmHg 76%
02:00 +2°C° 0 mm 2 m/s 755 mmHg 77%
03:00 +1°C° 0 mm 2 m/s 755 mmHg 79%
04:00 +1°C° 0 mm 2 m/s 755 mmHg 80%
05:00 +1°C° 0 mm 3 m/s 755 mmHg 80%
06:00 +1°C° 0 mm 3 m/s 755 mmHg 80%
07:00 +2°C° 0 mm 3 m/s 755 mmHg 80%
08:00 +3°C° 0 mm 3 m/s 755 mmHg 72%
09:00 +4°C° 0 mm 4 m/s 755 mmHg 65%
10:00 +5°C° 0 mm 4 m/s 755 mmHg 57%
11:00 +5°C° 0 mm 4 m/s 755 mmHg 54%
12:00 +6°C° 0 mm 4 m/s 755 mmHg 50%
13:00 +6°C° 0 mm 4 m/s 755 mmHg 46%
14:00 +6°C° 0 mm 4 m/s 755 mmHg 49%
15:00 +6°C° 0 mm 5 m/s 755 mmHg 52%
16:00 +6°C° 0 mm 5 m/s 755 mmHg 54%
17:00 +5°C° 0 mm 5 m/s 755 mmHg 57%
18:00 +4°C° 0 mm 4 m/s 755 mmHg 60%
19:00 +3°C° 0 mm 4 m/s 756 mmHg 64%
20:00 +1°C° 0 mm 4 m/s 756 mmHg 67%
21:00 +1°C° 0 mm 4 m/s 756 mmHg 71%
22:00 +1°C° 0 mm 4 m/s 756 mmHg 74%
23:00 0°C° 0 mm 4 m/s 756 mmHg 77%

Mâine, 15 Aprilie, Joi

Timp Temperatura Precipitaţii Vânt Presiune Umiditate
00:00 0°C° 0 mm 4 m/s 756 mmHg 79%
01:00 0°C° 0 mm 4 m/s 756 mmHg 81%
02:00 0°C° 0 mm 5 m/s 756 mmHg 81%
03:00 0°C° 0 mm 5 m/s 755 mmHg 81%
04:00 0°C° 0 mm 5 m/s 755 mmHg 80%
05:00 0°C° 0 mm 5 m/s 755 mmHg 78%
06:00 -1°C° 0 mm 6 m/s 755 mmHg 76%
07:00 -1°C° 0 mm 6 m/s 755 mmHg 74%
08:00 +1°C° 0.2 mm 6 m/s 755 mmHg 79%
09:00 0°C° 0.2 mm 7 m/s 755 mmHg 85%
10:00 0°C° 0.2 mm 7 m/s 755 mmHg 90%
11:00 0°C° 0.2 mm 7 m/s 754 mmHg 88%
12:00 +2°C° 0.2 mm 7 m/s 754 mmHg 86%
13:00 +2°C° 0.2 mm 7 m/s 754 mmHg 84%
14:00 +2°C° 0.8 mm 6 m/s 754 mmHg 87%
15:00 +2°C° 0.8 mm 6 m/s 754 mmHg 89%
16:00 +1°C° 0.8 mm 6 m/s 754 mmHg 92%
17:00 +2°C° 0.6 mm 6 m/s 754 mmHg 89%
18:00 +2°C° 0.6 mm 6 m/s 754 mmHg 86%
19:00 +3°C° 0.6 mm 6 m/s 754 mmHg 83%
20:00 +2°C° 0 mm 6 m/s 754 mmHg 82%
21:00 +2°C° 0 mm 5 m/s 754 mmHg 82%
22:00 +2°C° 0 mm 5 m/s 754 mmHg 81%
23:00 +2°C° 0 mm 5 m/s 753 mmHg 82%

Poimâine, 16 Aprilie, Vineri

Timp Temperatura Precipitaţii Vânt Presiune Umiditate
00:00 +3°C° 0 mm 4 m/s 753 mmHg 83%
01:00 +3°C° 0 mm 4 m/s 753 mmHg 84%
02:00 +1°C° 0 mm 4 m/s 753 mmHg 84%
03:00 +1°C° 0 mm 4 m/s 753 mmHg 84%
04:00 +1°C° 0 mm 4 m/s 753 mmHg 84%
05:00 +1°C° 0.1 mm 4 m/s 753 mmHg 85%
06:00 +1°C° 0.1 mm 4 m/s 753 mmHg 86%
07:00 +1°C° 0.1 mm 4 m/s 753 mmHg 88%
08:00 +1°C° 0.2 mm 4 m/s 753 mmHg 87%
09:00 +3°C° 0.2 mm 4 m/s 753 mmHg 86%
10:00 +3°C° 0.2 mm 4 m/s 754 mmHg 85%
11:00 +3°C° 0 mm 4 m/s 754 mmHg 85%
12:00 +3°C° 0 mm 4 m/s 754 mmHg 85%
13:00 +4°C° 0 mm 3 m/s 754 mmHg 84%
14:00 +4°C° 0 mm 3 m/s 754 mmHg 85%
15:00 +4°C° 0 mm 3 m/s 754 mmHg 85%
16:00 +4°C° 0 mm 3 m/s 754 mmHg 86%
17:00 +4°C° 0 mm 3 m/s 754 mmHg 87%
18:00 +4°C° 0 mm 3 m/s 754 mmHg 89%
19:00 +4°C° 0 mm 3 m/s 754 mmHg 90%
20:00 +4°C° 0 mm 3 m/s 754 mmHg 91%
21:00 +4°C° 0 mm 3 m/s 754 mmHg 91%
22:00 +4°C° 0 mm 3 m/s 754 mmHg 92%
23:00 +4°C° 0 mm 3 m/s 754 mmHg 93%

17 Aprilie, Sâmbătă

Timp Temperatura Precipitaţii Vânt Presiune Umiditate
00:00 +4°C° 0 mm 3 m/s 754 mmHg 94%
01:00 +5°C° 0 mm 2 m/s 754 mmHg 95%
02:00 +5°C° 0 mm 2 m/s 754 mmHg 95%
03:00 +5°C° 0 mm 2 m/s 754 mmHg 95%
04:00 +5°C° 0 mm 2 m/s 754 mmHg 96%
05:00 +5°C° 0 mm 3 m/s 754 mmHg 94%
06:00 +5°C° 0 mm 3 m/s 754 mmHg 93%
07:00 +5°C° 0 mm 3 m/s 754 mmHg 92%
08:00 +7°C° 0 mm 3 m/s 754 mmHg 87%
09:00 +8°C° 0 mm 3 m/s 754 mmHg 83%
10:00 +9°C° 0 mm 3 m/s 754 mmHg 78%
11:00 +9°C° 0.2 mm 3 m/s 754 mmHg 82%
12:00 +9°C° 0.2 mm 3 m/s 754 mmHg 85%
13:00 +8°C° 0.2 mm 3 m/s 754 mmHg 89%
14:00 +8°C° 0.2 mm 3 m/s 754 mmHg 87%
15:00 +9°C° 0.2 mm 3 m/s 754 mmHg 86%
16:00 +9°C° 0.2 mm 3 m/s 754 mmHg 84%
17:00 +9°C° 0 mm 2 m/s 754 mmHg 85%
18:00 +9°C° 0 mm 2 m/s 754 mmHg 85%
19:00 +8°C° 0 mm 2 m/s 754 mmHg 85%
20:00 +8°C° 0 mm 2 m/s 754 mmHg 87%
21:00 +8°C° 0 mm 2 m/s 754 mmHg 88%
22:00 +8°C° 0 mm 2 m/s 754 mmHg 89%
23:00 +8°C° 0.4 mm 3 m/s 754 mmHg 91%

18 Aprilie, Duminică

Timp Temperatura Precipitaţii Vânt Presiune Umiditate
00:00 +8°C° 0.4 mm 3 m/s 754 mmHg 92%
01:00 +7°C° 0.4 mm 3 m/s 753 mmHg 94%
02:00 +7°C° 0.2 mm 3 m/s 753 mmHg 95%
03:00 +7°C° 0.2 mm 3 m/s 753 mmHg 96%
04:00 +5°C° 0.2 mm 3 m/s 753 mmHg 97%
05:00 +7°C° 0 mm 3 m/s 753 mmHg 94%
06:00 +7°C° 0 mm 3 m/s 753 mmHg 91%
07:00 +8°C° 0 mm 3 m/s 754 mmHg 89%
08:00 +9°C° 0 mm 3 m/s 754 mmHg 81%
09:00 +10°C° 0 mm 3 m/s 754 mmHg 74%
10:00 +12°C° 0 mm 3 m/s 754 mmHg 67%
11:00 +12°C° 0.3 mm 3 m/s 753 mmHg 66%
12:00 +12°C° 0.3 mm 3 m/s 753 mmHg 65%
13:00 +12°C° 0.3 mm 3 m/s 753 mmHg 64%
14:00 +12°C° 0.2 mm 3 m/s 753 mmHg 65%
15:00 +13°C° 0.2 mm 2 m/s 753 mmHg 66%
16:00 +13°C° 0.2 mm 2 m/s 753 mmHg 67%
17:00 +12°C° 0.1 mm 2 m/s 753 mmHg 72%
18:00 +10°C° 0.1 mm 2 m/s 753 mmHg 76%
19:00 +9°C° 0.1 mm 2 m/s 753 mmHg 80%
20:00 +8°C° 0 mm 2 m/s 754 mmHg 82%
21:00 +8°C° 0 mm 2 m/s 754 mmHg 84%
22:00 +8°C° 0 mm 2 m/s 754 mmHg 87%
23:00 +7°C° 0 mm 2 m/s 754 mmHg 88%

19 Aprilie, Luni

Timp Temperatura Precipitaţii Vânt Presiune Umiditate
00:00 +7°C° 0 mm 2 m/s 754 mmHg 88%
01:00 +7°C° 0 mm 2 m/s 754 mmHg 89%
02:00 +7°C° 0 mm 2 m/s 753 mmHg 90%
03:00 +6°C° 0 mm 2 m/s 753 mmHg 91%
04:00 +6°C° 0 mm 2 m/s 753 mmHg 91%
05:00 +7°C° 0.1 mm 2 m/s 753 mmHg 89%
06:00 +7°C° 0.1 mm 2 m/s 753 mmHg 87%
07:00 +9°C° 0.1 mm 1 m/s 753 mmHg 85%
08:00 +9°C° 0.2 mm 2 m/s 753 mmHg 85%
09:00 +9°C° 0.2 mm 2 m/s 753 mmHg 84%
10:00 +9°C° 0.2 mm 2 m/s 752 mmHg 84%
11:00 +10°C° 0.3 mm 3 m/s 752 mmHg 83%
12:00 +10°C° 0.3 mm 3 m/s 752 mmHg 83%
13:00 +11°C° 0.3 mm 4 m/s 751 mmHg 82%
14:00 +10°C° 0.4 mm 4 m/s 751 mmHg 84%
15:00 +10°C° 0.4 mm 4 m/s 751 mmHg 86%
16:00 +8°C° 0.4 mm 4 m/s 751 mmHg 88%
17:00 +8°C° 0.4 mm 4 m/s 751 mmHg 90%
18:00 +8°C° 0.4 mm 3 m/s 751 mmHg 92%
19:00 +8°C° 0.4 mm 2 m/s 751 mmHg 94%
20:00 +8°C° 0.1 mm 2 m/s 751 mmHg 94%
21:00 +8°C° 0.1 mm 2 m/s 751 mmHg 95%
22:00 +8°C° 0.1 mm 2 m/s 751 mmHg 95%
23:00 +7°C° 0 mm 2 m/s 750 mmHg 95%
Arată mai mult

Formular de consimțământ

Meteoprog și furnizorii noștri de servicii pot stoca și accesa date personale, precum cookies, identificatori de dispozitiv sau alte tehnologii similare pe dispozitivul dumneavoastră și procesa astfel de date pentru a personaliza conținutul și reclamele, dar și pentru a oferi caracteristici de social media și pentru a analiza traficul.

  • Stocarea și/sau accesarea informațiilor pe dispozitivul dumneavoastră

    Cookies, identificatori de dispozitiv sau alte informații pot fi stocate sau accesate pe dispozitiv în scopurile indicate mai sus.

  • Reclame și conținut personalizat, evaluarea reclamelor și a conținutului, informații despre audiențe și dezvoltarea produselor

    Reclamele și conținutul pot fi personalizate pe baza unui profil. Pot fi adăugate date suplimentare pentru a personaliza mai bine reclamele și conținutul. Performanța reclamelor și conținutului poate fi măsurată. Pot fi obținute informații despre utilizatorii care au văzut reclamele și conținutul. Aceste date pot fi utilizate pentru a dezvolta sau îmbunătăți experiența utilizatorilor, sistemele și software-ul.

Dând clic pe ‘Sunt de acord’, permiteți utilizarea cookie-urilor menționate, a identificatorilor de dispozitiv, balizelor web sau altor tehnologii similare. Setările pot fi modificate din browser-ul dispozitivului dumneavoastră.

În anumite scopuri, interesele legitime pot prima asupra consimțământului. Puteți citi mai multe informații în acest sens în Politica privind Confidențialitatea Datelor și Cookie.